Location: Del Amo
(33.8464°N, 118.2104°W)
Time: 06:46:39
(UTC+00:00)

ARIANE 6 FM1 Upper Stage - Pass Details

Date: 23 August 2024
Orbit: 566 x 594 km, 62.0° (Epoch: 19 September)

Event Time Altitude Azimuth Distance (km) Brightness Sun altitude
Exits shadow 11:30:49 61° 185° (S) 660 2.7 -21.9°
Maximum altitude 11:31:28 77° 121° (ESE) 599 2.7 -21.8°
Drops below altitude 10° 11:35:47 10° 35° (NE) 1,909 6.3 -21.0°
Sets 11:38:03 0° 34° (NE) 2,817 7.4 -20.6°
